Skip Page Navigation
NASA JPL Caltech
NASA Logo - Jet Propulsion Laboratory + View the NASA Portal
+ Center for Near-Earth Object Studies
JPL Home Earth Solar System Stars & Galaxies Technology
JPL Solar System Dynamics
BODIES ORBITS EPHEMERIDES TOOLS PHYSICAL DATA DISCOVERY FAQ SITE MAP
JPL Small-Body Database Browser
Search: [ help ]  
216193 (2006 TL117)
Classification: Main-belt Asteroid          SPK-ID: 2216193
Ephemeris | Orbit Diagram | Orbital Elements | Mission Design | Physical Parameters | Discovery Circumstances | Close-Approach Data ]

[ show orbit diagram ]
Orbital Elements at Epoch 2459200.5 (2020-Dec-17.0) TDB
Reference: JPL 17 (heliocentric ecliptic J2000)
 Element Value Uncertainty (1-sigma)   Units 
e .07257222248432493 4.1147e-08  
a 3.078254404535464 3.0969e-08 au
q 2.854858641026163 1.1952e-07 au
i 12.94628643851507 4.3754e-06 deg
node 159.3801013851979 2.6771e-05 deg
peri 2.765753653190927 5.0104e-05 deg
M 103.5737948704225 4.1759e-05 deg
tp 2458632.952024008838
(2019-May-29.45202401)
0.00022863 TDB
period 1972.673412347517
5.40
2.9769e-05
8.15e-08
d
yr
n .1824934617898021 2.754e-09 deg/d
Q 3.301650168044765 3.3216e-08 au
  Orbit Determination Parameters
   # obs. used (total)      305  
   data-arc span      6343 days (17.37 yr)  
   first obs. used      2003-03-06  
   last obs. used      2020-07-17  
   planetary ephem.      DE441  
   SB-pert. ephem.      SB441-N16  
   condition code      0  
   norm. resid. RMS      .55792  
   source      ORB  
   producer      Otto Matic  
   solution date      2021-Apr-13 23:53:49  

Additional Information
 Earth MOID = 1.86301 au 
 Jupiter MOID = 1.67456 au 
 T_jup = 3.186 
[ show covariance matrix ]

Ephemeris | Orbit Diagram | Orbital Elements | Mission Design | Physical Parameters | Discovery Circumstances | Close-Approach Data ]

Physical Parameter Table
Parameter Symbol Value Units Sigma Reference Notes
absolute magnitude H 15.64   n/a E2021B55  
diameter diameter 4.801 km 1.219 urn:nasa:pds:neowise_diameters_albedos::2.0[mainbelt] (http://adsabs.harvard.edu/abs/2011ApJ...741...68M)  
geometric albedo albedo 0.053   0.031 urn:nasa:pds:neowise_diameters_albedos::2.0[mainbelt] (http://adsabs.harvard.edu/abs/2011ApJ...741...68M)  

216193 (2006 TL117)          Discovered 2006-Oct-03 by Becker, A. C. at Apache Point
Reference: 20090607/Numbers.arcLast Updated: 2009-06-08

[ show close-approach data ]
Ephemeris | Orbit Diagram | Orbital Elements | Mission Design | Physical Parameters | Discovery Circumstances | Close-Approach Data ]
ABOUT SSD CREDITS/AWARDS PRIVACY/COPYRIGHT GLOSSARY LINKS
FirstGov 2021-Jun-14 05:15 UT
(server date/time)  
NASA Home Page
Site Manager:   Ryan S. Park
Webmaster  Alan B. Chamberlin